Location: D�pe
(52.6057°N, 8.1808°E)
Time: 07:52:08
(UTC+00:00)

CZ-4 R/B - Pass Details

Date: 29 October 2020
Orbit: 532 x 598 km, 97.7° (Epoch: 01 December)

Event Time Altitude Azimuth Distance (km) Brightness Sun altitude
Rises 19:00:49 0° 206° (SSW) 2,693 5.0 -27.5°
Reaches altitude 10° 19:03:31 10° 226° (SW) 1,798 4.3 -27.9°
Maximum altitude 19:06:09 17° 269° (W) 1,389 4.1 -28.3°
Drops below altitude 10° 19:08:47 10° 312° (NW) 1,798 4.7 -28.7°
Sets 19:11:30 0° 333° (NNW) 2,693 5.4 -29.0°
